Time,TemperatureF,DewpointF,PressureIn,WindDirection,WindDirectionDegrees,WindSpeedMPH,WindSpeedGustMPH,Humidity,HourlyPrecipIn,Conditions,Clouds,dailyrainin,SolarRadiationWatts/m^2,SoftwareType,DateUTC
2013-01-05 00:01:00,28.8,19.9,30.27,NNW,334,15.0,26.0,69,0.00,,,0.00,0.0,meteohub,2013-01-05 05:01:00,
2013-01-05 00:02:00,28.8,19.9,30.28,North,0,4.0,26.0,69,0.00,,,0.00,0.0,meteohub,2013-01-05 05:02:00,
2013-01-05 00:07:00,28.8,19.9,30.28,NNW,327,3.0,30.0,69,0.00,,,0.00,0.0,meteohub,2013-01-05 05:07:00,
2013-01-05 00:10:00,28.8,19.6,30.27,North,355,14.0,30.0,68,0.00,,,0.00,0.0,meteohub,2013-01-05 05:10:00,
2013-01-05 00:16:00,28.9,19.8,30.27,NNW,336,7.0,28.0,68,0.00,,,0.00,0.0,meteohub,2013-01-05 05:16:00,
2013-01-05 00:22:00,28.9,19.8,30.26,North,355,10.0,34.0,68,0.00,,,0.00,0.0,meteohub,2013-01-05 05:22:00,
2013-01-05 00:27:00,28.9,19.4,30.26,North,350,20.0,34.0,67,0.00,,,0.00,0.0,meteohub,2013-01-05 05:27:00,
2013-01-05 00:31:00,28.9,19.4,30.25,NNE,17,7.0,34.0,67,0.00,,,0.00,0.0,meteohub,2013-01-05 05:31:00,
2013-01-05 00:37:00,28.8,19.2,30.26,North,0,10.0,33.0,67,0.00,,,0.00,0.0,meteohub,2013-01-05 05:37:00,
2013-01-05 00:42:00,28.8,19.6,30.26,North,355,8.0,33.0,68,0.00,,,0.00,0.0,meteohub,2013-01-05 05:42:00,
2013-01-05 00:47:00,28.8,19.6,30.26,North,9,5.0,33.0,68,0.00,,,0.00,0.0,meteohub,2013-01-05 05:47:00,
2013-01-05 00:52:00,28.8,19.6,30.26,North,355,20.0,30.0,68,0.00,,,0.00,0.0,meteohub,2013-01-05 05:52:00,
2013-01-05 00:57:00,28.6,19.4,30.25,North,355,14.0,30.0,68,0.00,,,0.00,0.0,meteohub,2013-01-05 05:57:00,
2013-01-05 01:02:00,28.6,19.4,30.25,North,5,21.0,30.0,68,0.00,,,0.00,0.0,meteohub,2013-01-05 06:02:00,
2013-01-05 01:07:00,28.8,19.6,30.26,NNE,14,17.0,31.0,68,0.00,,,0.00,0.0,meteohub,2013-01-05 06:07:00,
2013-01-05 01:12:00,28.6,19.4,30.26,North,0,26.0,39.0,68,0.00,,,0.00,0.0,meteohub,2013-01-05 06:12:00,
2013-01-05 01:17:00,28.8,19.2,30.27,North,355,14.0,39.0,67,0.00,,,0.00,0.0,meteohub,2013-01-05 06:17:00,
2013-01-05 01:22:00,28.8,19.2,30.26,North,10,22.0,39.0,67,0.00,,,0.00,0.0,meteohub,2013-01-05 06:22:00,
2013-01-05 01:27:00,28.8,18.9,30.26,North,351,5.0,36.0,66,0.00,,,0.00,0.0,meteohub,2013-01-05 06:27:00,
2013-01-05 01:32:00,28.8,18.9,30.26,NNW,343,24.0,36.0,66,0.00,,,0.00,0.0,meteohub,2013-01-05 06:32:00,
2013-01-05 01:37:00,28.8,18.9,30.25,North,355,20.0,36.0,66,0.00,,,0.00,0.0,meteohub,2013-01-05 06:37:00,
2013-01-05 01:42:00,28.8,18.5,30.26,NNE,19,21.0,33.0,65,0.00,,,0.00,0.0,meteohub,2013-01-05 06:42:00,
2013-01-05 01:47:00,28.8,18.5,30.26,North,0,20.0,33.0,65,0.00,,,0.00,0.0,meteohub,2013-01-05 06:47:00,
2013-01-05 01:52:00,28.8,18.5,30.26,North,5,20.0,33.0,65,0.00,,,0.00,0.0,meteohub,2013-01-05 06:52:00,
2013-01-05 01:57:00,28.8,18.5,30.26,North,355,22.0,29.0,65,0.00,,,0.00,0.0,meteohub,2013-01-05 06:57:00,
2013-01-05 02:02:00,28.9,18.7,30.27,NNE,15,11.0,33.0,65,0.00,,,0.00,0.0,meteohub,2013-01-05 07:02:00,
2013-01-05 02:07:00,28.9,18.3,30.27,North,355,22.0,33.0,64,0.00,,,0.00,0.0,meteohub,2013-01-05 07:07:00,
2013-01-05 02:12:00,28.9,18.3,30.27,North,10,18.0,35.0,64,0.00,,,0.00,0.0,meteohub,2013-01-05 07:12:00,
2013-01-05 02:17:00,29.1,18.5,30.27,North,350,22.0,35.0,64,0.00,,,0.00,0.0,meteohub,2013-01-05 07:17:00,
2013-01-05 02:22:00,29.1,18.5,30.27,North,0,23.0,35.0,64,0.00,,,0.00,0.0,meteohub,2013-01-05 07:22:00,
2013-01-05 02:27:00,28.9,18.7,30.27,North,355,20.0,32.0,65,0.00,,,0.00,0.0,meteohub,2013-01-05 07:27:00,
2013-01-05 02:32:00,28.9,18.7,30.27,North,5,17.0,32.0,65,0.00,,,0.00,0.0,meteohub,2013-01-05 07:32:00,
2013-01-05 02:37:00,28.8,18.5,30.27,North,355,30.0,32.0,65,0.00,,,0.00,0.0,meteohub,2013-01-05 07:37:00,
2013-01-05 02:42:00,28.8,18.9,30.27,North,355,19.0,32.0,66,0.00,,,0.00,0.0,meteohub,2013-01-05 07:42:00,
2013-01-05 02:47:00,28.8,18.9,30.27,North,5,26.0,30.0,66,0.00,,,0.00,0.0,meteohub,2013-01-05 07:47:00,
2013-01-05 02:52:00,28.8,18.9,30.27,North,5,20.0,37.0,66,0.00,,,0.00,0.0,meteohub,2013-01-05 07:52:00,
2013-01-05 02:57:00,28.8,19.2,30.27,NNE,13,21.0,37.0,67,0.00,,,0.00,0.0,meteohub,2013-01-05 07:57:00,
2013-01-05 03:02:00,28.8,18.9,30.27,NNE,24,27.0,37.0,66,0.00,,,0.00,0.0,meteohub,2013-01-05 08:02:00,
2013-01-05 03:07:00,28.8,18.9,30.28,North,5,21.0,34.0,66,0.00,,,0.00,0.0,meteohub,2013-01-05 08:07:00,
2013-01-05 03:12:00,28.8,18.9,30.28,NNE,14,27.0,34.0,66,0.00,,,0.00,0.0,meteohub,2013-01-05 08:12:00,
2013-01-05 03:17:00,28.6,19.0,30.28,North,350,15.0,34.0,67,0.00,,,0.00,0.0,meteohub,2013-01-05 08:17:00,
2013-01-05 03:22:00,28.6,19.0,30.28,NNE,19,25.0,33.0,67,0.00,,,0.00,0.0,meteohub,2013-01-05 08:22:00,
2013-01-05 03:27:00,28.6,19.0,30.29,North,0,18.0,30.0,67,0.00,,,0.00,0.0,meteohub,2013-01-05 08:27:00,
2013-01-05 03:32:00,28.6,18.7,30.29,NNE,28,16.0,30.0,66,0.00,,,0.00,0.0,meteohub,2013-01-05 08:32:00,
2013-01-05 03:37:00,28.6,18.7,30.29,NNW,344,20.0,31.0,66,0.00,,,0.00,0.0,meteohub,2013-01-05 08:37:00,
2013-01-05 03:42:00,28.8,18.9,30.28,NNE,12,16.0,31.0,66,0.00,,,0.00,0.0,meteohub,2013-01-05 08:42:00,
2013-01-05 03:47:00,28.8,18.9,30.28,North,11,23.0,31.0,66,0.00,,,0.00,0.0,meteohub,2013-01-05 08:47:00,
2013-01-05 03:52:00,28.6,18.7,30.28,NNE,17,29.0,32.0,66,0.00,,,0.00,0.0,meteohub,2013-01-05 08:52:00,
2013-01-05 03:57:00,28.6,18.7,30.27,North,355,25.0,33.0,66,0.00,,,0.00,0.0,meteohub,2013-01-05 08:57:00,
2013-01-05 04:02:00,28.4,18.5,30.27,NNE,22,27.0,33.0,66,0.00,,,0.00,0.0,meteohub,2013-01-05 09:02:00,
2013-01-05 04:07:00,28.6,18.3,30.27,NNE,13,27.0,33.0,65,0.00,,,0.00,0.0,meteohub,2013-01-05 09:07:00,
2013-01-05 04:12:00,28.6,18.3,30.27,North,0,30.0,33.0,65,0.00,,,0.00,0.0,meteohub,2013-01-05 09:12:00,
2013-01-05 04:17:00,28.8,18.1,30.27,North,11,33.0,33.0,64,0.00,,,0.00,0.0,meteohub,2013-01-05 09:17:00,
2013-01-05 04:22:00,28.9,18.0,30.27,North,355,23.0,34.0,63,0.00,,,0.00,0.0,meteohub,2013-01-05 09:22:00,
2013-01-05 04:27:00,28.9,18.0,30.26,North,0,17.0,34.0,63,0.00,,,0.00,0.0,meteohub,2013-01-05 09:27:00,
2013-01-05 04:32:00,28.9,18.0,30.27,NNE,17,20.0,35.0,63,0.00,,,0.00,0.0,meteohub,2013-01-05 09:32:00,
2013-01-05 04:37:00,28.9,17.6,30.27,NNW,336,24.0,35.0,62,0.00,,,0.00,0.0,meteohub,2013-01-05 09:37:00,
2013-01-05 04:42:00,28.9,17.6,30.27,NNW,347,12.0,35.0,62,0.00,,,0.00,0.0,meteohub,2013-01-05 09:42:00,
2013-01-05 04:47:00,29.1,17.8,30.27,NNE,20,28.0,32.0,62,0.00,,,0.00,0.0,meteohub,2013-01-05 09:47:00,
2013-01-05 04:52:00,29.1,17.8,30.26,NNE,13,22.0,35.0,62,0.00,,,0.00,0.0,meteohub,2013-01-05 09:52:00,
2013-01-05 04:57:00,29.1,17.4,30.26,NNE,12,26.0,35.0,61,0.00,,,0.00,0.0,meteohub,2013-01-05 09:57:00,
2013-01-05 05:02:00,29.1,17.8,30.27,NNW,346,22.0,41.0,62,0.00,,,0.00,0.0,meteohub,2013-01-05 10:02:00,
2013-01-05 05:07:00,29.3,17.6,30.27,NE,38,19.0,41.0,61,0.00,,,0.00,0.0,meteohub,2013-01-05 10:07:00,
2013-01-05 05:12:00,29.3,17.1,30.26,NNE,28,23.0,33.0,60,0.00,,,0.00,0.0,meteohub,2013-01-05 10:12:00,
2013-01-05 05:17:00,29.3,17.6,30.27,North,350,11.0,33.0,61,0.00,,,0.00,0.0,meteohub,2013-01-05 10:17:00,
2013-01-05 05:22:00,29.3,17.1,30.27,North,355,16.0,33.0,60,0.00,,,0.00,0.0,meteohub,2013-01-05 10:22:00,
2013-01-05 05:27:00,29.5,17.2,30.27,NNE,21,19.0,33.0,60,0.00,,,0.00,0.0,meteohub,2013-01-05 10:27:00,
2013-01-05 05:32:00,29.5,17.2,30.27,NNE,15,29.0,30.0,60,0.00,,,0.00,0.0,meteohub,2013-01-05 10:32:00,
2013-01-05 05:37:00,29.5,17.2,30.27,NNE,20,13.0,30.0,60,0.00,,,0.00,0.0,meteohub,2013-01-05 10:37:00,
2013-01-05 05:42:00,29.5,17.2,30.27,NNE,15,22.0,30.0,60,0.00,,,0.00,0.0,meteohub,2013-01-05 10:42:00,
2013-01-05 05:47:00,29.7,17.1,30.27,NNW,348,22.0,30.0,59,0.00,,,0.00,0.0,meteohub,2013-01-05 10:47:00,
2013-01-05 05:52:00,29.7,17.1,30.27,NNE,16,8.0,30.0,59,0.00,,,0.00,0.0,meteohub,2013-01-05 10:52:00,
2013-01-05 05:57:00,29.7,17.1,30.27,NNE,29,15.0,30.0,59,0.00,,,0.00,0.0,meteohub,2013-01-05 10:57:00,
2013-01-05 06:02:00,29.7,17.1,30.27,North,0,20.0,30.0,59,0.00,,,0.00,0.0,meteohub,2013-01-05 11:02:00,
2013-01-05 06:07:00,29.7,17.1,30.28,NNE,22,4.0,30.0,59,0.00,,,0.00,0.0,meteohub,2013-01-05 11:07:00,
2013-01-05 06:12:00,29.7,17.1,30.28,NNE,12,20.0,31.0,59,0.00,,,0.00,0.0,meteohub,2013-01-05 11:12:00,
2013-01-05 06:17:00,29.5,16.9,30.29,North,5,13.0,31.0,59,0.00,,,0.00,0.0,meteohub,2013-01-05 11:17:00,
2013-01-05 06:22:00,29.5,17.2,30.29,North,9,10.0,22.0,60,0.00,,,0.00,0.0,meteohub,2013-01-05 11:22:00,
2013-01-05 06:27:00,29.7,17.1,30.28,North,9,19.0,22.0,59,0.00,,,0.00,0.0,meteohub,2013-01-05 11:27:00,
2013-01-05 06:32:00,29.7,17.1,30.28,NNE,19,7.0,22.0,59,0.00,,,0.00,0.0,meteohub,2013-01-05 11:32:00,
2013-01-05 06:37:00,29.7,17.1,30.29,NNW,346,9.0,22.0,59,0.00,,,0.00,0.0,meteohub,2013-01-05 11:37:00,
2013-01-05 06:42:00,29.5,17.2,30.29,NNW,343,4.0,22.0,60,0.00,,,0.00,0.0,meteohub,2013-01-05 11:42:00,
2013-01-05 06:47:00,28.9,18.0,30.29,NW,321,2.0,22.0,63,0.00,,,0.00,0.0,meteohub,2013-01-05 11:47:00,
2013-01-05 06:52:00,28.6,17.6,30.29,NW,325,2.0,18.0,63,0.00,,,0.00,0.0,meteohub,2013-01-05 11:52:00,
2013-01-05 06:57:00,28.6,16.9,30.30,NNW,338,3.0,11.0,61,0.00,,,0.00,0.0,meteohub,2013-01-05 11:57:00,
2013-01-05 07:02:00,28.6,17.2,30.30,NNW,346,2.0,4.0,62,0.00,,,0.00,0.0,meteohub,2013-01-05 12:02:00,
2013-01-05 07:07:00,28.6,17.2,30.30,NNW,333,3.0,4.0,62,0.00,,,0.00,0.0,meteohub,2013-01-05 12:07:00,
2013-01-05 07:12:00,28.6,16.9,30.30,NNW,339,2.0,4.0,61,0.00,,,0.00,0.0,meteohub,2013-01-05 12:12:00,
2013-01-05 07:17:00,28.6,16.9,30.31,NNW,343,2.0,4.0,61,0.00,,,0.00,0.0,meteohub,2013-01-05 12:17:00,
2013-01-05 07:22:00,28.6,17.2,30.31,NNW,346,2.0,4.0,62,0.00,,,0.00,0.0,meteohub,2013-01-05 12:22:00,
2013-01-05 07:27:00,28.4,17.1,30.31,NNW,343,3.0,4.0,62,0.00,,,0.00,0.0,meteohub,2013-01-05 12:27:00,
2013-01-05 07:32:00,28.4,17.1,30.31,NNW,343,1.0,4.0,62,0.00,,,0.00,0.0,meteohub,2013-01-05 12:32:00,
2013-01-05 07:37:00,28.2,17.2,30.31,NNW,343,3.0,4.0,63,0.00,,,0.00,7.0,meteohub,2013-01-05 12:37:00,
2013-01-05 07:42:00,28.6,17.2,30.32,NNW,339,1.0,4.0,62,0.00,,,0.00,11.0,meteohub,2013-01-05 12:42:00,
2013-01-05 07:47:00,28.9,17.2,30.32,NNW,345,3.0,4.0,61,0.00,,,0.00,16.0,meteohub,2013-01-05 12:47:00,
2013-01-05 07:52:00,29.5,17.2,30.32,NNW,344,3.0,4.0,60,0.00,,,0.00,18.0,meteohub,2013-01-05 12:52:00,
2013-01-05 07:57:00,29.7,17.4,30.32,NNW,329,2.0,4.0,60,0.00,,,0.00,26.0,meteohub,2013-01-05 12:57:00,
2013-01-05 08:02:00,29.8,17.6,30.32,NNW,343,2.0,4.0,60,0.00,,,0.00,28.0,meteohub,2013-01-05 13:02:00,
2013-01-05 08:07:00,30.2,18.3,30.32,North,350,3.0,4.0,61,0.00,,,0.00,47.0,meteohub,2013-01-05 13:07:00,
2013-01-05 08:12:00,30.9,18.3,30.32,NNW,348,2.0,4.0,59,0.00,,,0.00,65.0,meteohub,2013-01-05 13:12:00,
2013-01-05 08:17:00,31.6,19.0,30.32,NNW,339,3.0,4.0,59,0.00,,,0.00,77.0,meteohub,2013-01-05 13:17:00,
2013-01-05 08:22:00,32.4,18.9,30.33,North,355,3.0,4.0,57,0.00,,,0.00,90.0,meteohub,2013-01-05 13:22:00,
2013-01-05 08:27:00,33.1,19.6,30.33,NNW,344,3.0,4.0,57,0.00,,,0.00,118.0,meteohub,2013-01-05 13:27:00,
2013-01-05 08:32:00,33.6,17.4,30.33,North,5,1.0,4.0,51,0.00,,,0.00,65.0,meteohub,2013-01-05 13:32:00,
2013-01-05 08:37:00,33.6,18.3,30.33,North,5,2.0,4.0,53,0.00,,,0.00,132.0,meteohub,2013-01-05 13:37:00,
2013-01-05 08:42:00,34.0,19.0,30.33,North,5,1.0,4.0,54,0.00,,,0.00,160.0,meteohub,2013-01-05 13:42:00,
2013-01-05 08:47:00,34.3,18.5,30.33,North,5,2.0,3.0,52,0.00,,,0.00,192.0,meteohub,2013-01-05 13:47:00,
2013-01-05 08:52:00,35.1,19.2,30.33,North,5,2.0,3.0,52,0.00,,,0.00,146.0,meteohub,2013-01-05 13:52:00,
2013-01-05 08:57:00,35.8,19.0,30.33,North,11,1.0,3.0,50,0.00,,,0.00,181.0,meteohub,2013-01-05 13:57:00,
2013-01-05 09:02:00,36.5,18.7,30.33,North,11,1.0,4.0,48,0.00,,,0.00,178.0,meteohub,2013-01-05 14:02:00,
2013-01-05 09:07:00,37.8,18.3,30.33,NW,321,1.0,4.0,45,0.00,,,0.00,262.0,meteohub,2013-01-05 14:07:00,
2013-01-05 09:12:00,39.7,18.5,30.33,NW,321,0.0,3.0,42,0.00,,,0.00,216.0,meteohub,2013-01-05 14:12:00,
2013-01-05 09:17:00,40.8,17.2,30.33,NW,321,0.0,2.0,38,0.00,,,0.00,200.0,meteohub,2013-01-05 14:17:00,
2013-01-05 09:22:00,41.4,17.1,30.33,NW,321,0.0,2.0,37,0.00,,,0.00,146.0,meteohub,2013-01-05 14:22:00,
2013-01-05 09:27:00,41.7,18.0,30.33,NW,321,0.0,2.0,38,0.00,,,0.00,172.0,meteohub,2013-01-05 14:27:00,
2013-01-05 09:32:00,41.7,17.4,30.33,NW,320,1.0,2.0,37,0.00,,,0.00,209.0,meteohub,2013-01-05 14:32:00,
2013-01-05 09:37:00,41.7,18.5,30.34,West,266,0.0,3.0,39,0.00,,,0.00,207.0,meteohub,2013-01-05 14:37:00,
2013-01-05 09:42:00,41.5,19.0,30.34,SE,142,0.0,4.0,40,0.00,,,0.00,209.0,meteohub,2013-01-05 14:42:00,
2013-01-05 09:47:00,41.2,18.7,30.34,SE,126,0.0,5.0,40,0.00,,,0.00,283.0,meteohub,2013-01-05 14:47:00,
2013-01-05 09:52:00,41.2,19.8,30.34,SE,124,0.0,5.0,42,0.00,,,0.00,134.0,meteohub,2013-01-05 14:52:00,
2013-01-05 09:57:00,41.0,20.3,30.34,ESE,115,1.0,5.0,43,0.00,,,0.00,295.0,meteohub,2013-01-05 14:57:00,
2013-01-05 10:02:00,41.2,20.3,30.34,ESE,118,1.0,4.0,43,0.00,,,0.00,294.0,meteohub,2013-01-05 15:02:00,
2013-01-05 10:07:00,41.2,20.3,30.34,ESE,111,1.0,4.0,43,0.00,,,0.00,341.0,meteohub,2013-01-05 15:07:00,
2013-01-05 10:12:00,41.0,20.3,30.34,ESE,123,0.0,4.0,43,0.00,,,0.00,279.0,meteohub,2013-01-05 15:12:00,
2013-01-05 10:17:00,41.2,20.3,30.34,SE,131,1.0,5.0,43,0.00,,,0.00,387.0,meteohub,2013-01-05 15:17:00,
2013-01-05 10:22:00,41.2,20.8,30.34,SE,140,5.0,6.0,44,0.00,,,0.00,464.0,meteohub,2013-01-05 15:22:00,
2013-01-05 10:28:00,41.2,21.9,30.33,East,80,0.0,6.0,46,0.00,,,0.00,434.0,meteohub,2013-01-05 15:28:00,
2013-01-05 10:34:00,41.2,20.8,30.34,South,174,2.0,6.0,44,0.00,,,0.00,325.0,meteohub,2013-01-05 15:34:00,
2013-01-05 10:40:00,40.6,21.6,30.34,ESE,122,1.0,6.0,46,0.00,,,0.00,376.0,meteohub,2013-01-05 15:40:00,
2013-01-05 10:46:00,40.1,22.5,30.34,SE,130,2.0,6.0,49,0.00,,,0.00,469.0,meteohub,2013-01-05 15:46:00,
2013-01-05 10:52:00,40.3,23.5,30.34,SSE,159,0.0,6.0,51,0.00,,,0.00,489.0,meteohub,2013-01-05 15:52:00,
2013-01-05 10:57:00,40.6,23.9,30.34,SE,146,4.0,6.0,51,0.00,,,0.00,469.0,meteohub,2013-01-05 15:57:00,
2013-01-05 11:02:00,41.2,23.9,30.34,SSE,163,1.0,6.0,50,0.00,,,0.00,422.0,meteohub,2013-01-05 16:02:00,
2013-01-05 11:07:00,41.7,23.0,30.34,SSE,166,2.0,6.0,47,0.00,,,0.00,374.0,meteohub,2013-01-05 16:07:00,
2013-01-05 11:13:00,42.3,23.5,30.34,South,173,1.0,6.0,47,0.00,,,0.00,485.0,meteohub,2013-01-05 16:13:00,
2013-01-05 11:19:00,42.6,22.3,30.33,SSE,166,0.0,6.0,44,0.00,,,0.00,390.0,meteohub,2013-01-05 16:19:00,
2013-01-05 11:26:00,43.0,22.6,30.33,East,96,0.0,7.0,44,0.00,,,0.00,385.0,meteohub,2013-01-05 16:26:00,
2013-01-05 11:32:00,43.2,22.6,30.32,ESE,110,0.0,8.0,44,0.00,,,0.00,459.0,meteohub,2013-01-05 16:32:00,
2013-01-05 11:37:00,43.2,23.7,30.32,ESE,110,0.0,8.0,46,0.00,,,0.00,348.0,meteohub,2013-01-05 16:37:00,
2013-01-05 11:42:00,43.3,22.8,30.32,ESE,105,0.0,8.0,44,0.00,,,0.00,594.0,meteohub,2013-01-05 16:42:00,
2013-01-05 11:47:00,43.2,22.6,30.32,SSE,165,1.0,7.0,44,0.00,,,0.00,461.0,meteohub,2013-01-05 16:47:00,
2013-01-05 11:52:00,43.2,23.2,30.32,ESE,120,0.0,7.0,45,0.00,,,0.00,594.0,meteohub,2013-01-05 16:52:00,
2013-01-05 11:57:00,43.0,22.6,30.31,SSE,165,1.0,7.0,44,0.00,,,0.00,432.0,meteohub,2013-01-05 16:57:00,
2013-01-05 12:02:00,43.0,22.6,30.31,East,92,0.0,8.0,44,0.00,,,0.00,633.0,meteohub,2013-01-05 17:02:00,
2013-01-05 12:07:00,43.2,23.7,30.30,SE,142,2.0,8.0,46,0.00,,,0.00,315.0,meteohub,2013-01-05 17:07:00,
2013-01-05 12:12:00,43.2,22.1,30.30,SSE,148,4.0,7.0,43,0.00,,,0.00,209.0,meteohub,2013-01-05 17:12:00,
2013-01-05 12:17:00,42.6,21.7,30.28,SSE,162,4.0,7.0,43,0.00,,,0.00,378.0,meteohub,2013-01-05 17:17:00,
2013-01-05 12:22:00,42.4,22.6,30.29,East,95,1.0,7.0,45,0.00,,,0.00,290.0,meteohub,2013-01-05 17:22:00,
2013-01-05 12:27:00,42.3,22.5,30.28,ESE,121,0.0,7.0,45,0.00,,,0.00,272.0,meteohub,2013-01-05 17:27:00,
2013-01-05 12:32:00,41.7,22.5,30.28,SE,128,1.0,7.0,46,0.00,,,0.00,287.0,meteohub,2013-01-05 17:32:00,
2013-01-05 12:37:00,41.5,23.4,30.29,SSE,161,2.0,7.0,48,0.00,,,0.00,422.0,meteohub,2013-01-05 17:37:00,
2013-01-05 12:42:00,42.3,23.5,30.29,SE,140,2.0,7.0,47,0.00,,,0.00,188.0,meteohub,2013-01-05 17:42:00,
2013-01-05 12:47:00,42.3,23.0,30.29,SE,135,4.0,8.0,46,0.00,,,0.00,267.0,meteohub,2013-01-05 17:47:00,
2013-01-05 12:52:00,42.1,22.8,30.29,SE,144,4.0,8.0,46,0.00,,,0.00,243.0,meteohub,2013-01-05 17:52:00,
2013-01-05 12:57:00,41.7,21.4,30.29,SE,124,5.0,11.0,44,0.00,,,0.00,295.0,meteohub,2013-01-05 17:57:00,
2013-01-05 13:02:00,41.7,23.0,30.29,South,172,2.0,11.0,47,0.00,,,0.00,178.0,meteohub,2013-01-05 18:02:00,
2013-01-05 13:07:00,41.9,22.6,30.28,SW,232,0.0,11.0,46,0.00,,,0.00,241.0,meteohub,2013-01-05 18:07:00,
2013-01-05 13:12:00,41.4,21.6,30.28,NE,42,2.0,9.0,45,0.00,,,0.00,417.0,meteohub,2013-01-05 18:12:00,
2013-01-05 13:17:00,41.4,22.6,30.28,ENE,63,0.0,9.0,47,0.00,,,0.00,216.0,meteohub,2013-01-05 18:17:00,
2013-01-05 13:22:00,41.5,23.7,30.27,ENE,69,0.0,9.0,49,0.00,,,0.00,206.0,meteohub,2013-01-05 18:22:00,
2013-01-05 13:27:00,41.5,24.3,30.27,SE,129,2.0,12.0,50,0.00,,,0.00,216.0,meteohub,2013-01-05 18:27:00,
2013-01-05 13:32:00,41.7,23.0,30.27,SE,138,2.0,12.0,47,0.00,,,0.00,394.0,meteohub,2013-01-05 18:32:00,
2013-01-05 13:37:00,42.1,23.4,30.26,East,81,0.0,12.0,47,0.00,,,0.00,209.0,meteohub,2013-01-05 18:37:00,
2013-01-05 13:42:00,42.1,22.8,30.26,SSE,159,2.0,8.0,46,0.00,,,0.00,241.0,meteohub,2013-01-05 18:42:00,
2013-01-05 13:47:00,41.7,23.0,30.26,East,94,2.0,8.0,47,0.00,,,0.00,190.0,meteohub,2013-01-05 18:47:00,
2013-01-05 13:52:00,42.1,22.3,30.26,SSE,157,2.0,7.0,45,0.00,,,0.00,172.0,meteohub,2013-01-05 18:52:00,
2013-01-05 13:57:00,41.7,22.5,30.26,SW,217,2.0,7.0,46,0.00,,,0.00,186.0,meteohub,2013-01-05 18:57:00,
2013-01-05 14:02:00,41.7,21.9,30.25,South,178,4.0,7.0,45,0.00,,,0.00,255.0,meteohub,2013-01-05 19:02:00,
2013-01-05 14:07:00,42.1,22.8,30.25,ESE,122,1.0,7.0,46,0.00,,,0.00,178.0,meteohub,2013-01-05 19:07:00,
2013-01-05 14:12:00,42.1,21.7,30.25,SE,129,2.0,6.0,44,0.00,,,0.00,204.0,meteohub,2013-01-05 19:12:00,
2013-01-05 14:17:00,41.7,21.9,30.25,SE,127,0.0,7.0,45,0.00,,,0.00,185.0,meteohub,2013-01-05 19:17:00,
2013-01-05 14:22:00,41.5,22.8,30.25,South,179,4.0,7.0,47,0.00,,,0.00,218.0,meteohub,2013-01-05 19:22:00,
2013-01-05 14:27:00,41.5,22.8,30.25,SSE,149,4.0,7.0,47,0.00,,,0.00,192.0,meteohub,2013-01-05 19:27:00,
2013-01-05 14:32:00,41.5,22.3,30.25,SE,125,1.0,6.0,46,0.00,,,0.00,179.0,meteohub,2013-01-05 19:32:00,
2013-01-05 14:37:00,41.4,22.6,30.25,SSE,165,4.0,6.0,47,0.00,,,0.00,156.0,meteohub,2013-01-05 19:37:00,
2013-01-05 14:42:00,41.2,21.9,30.25,SSE,164,1.0,6.0,46,0.00,,,0.00,171.0,meteohub,2013-01-05 19:42:00,
2013-01-05 14:47:00,41.2,23.0,30.25,SSE,165,1.0,6.0,48,0.00,,,0.00,181.0,meteohub,2013-01-05 19:47:00,
2013-01-05 14:52:00,41.2,23.0,30.26,SSE,150,2.0,6.0,48,0.00,,,0.00,142.0,meteohub,2013-01-05 19:52:00,
2013-01-05 14:57:00,41.0,21.7,30.25,South,181,0.0,5.0,46,0.00,,,0.00,169.0,meteohub,2013-01-05 19:57:00,
2013-01-05 15:02:00,40.8,22.1,30.25,SE,140,4.0,5.0,47,0.00,,,0.00,142.0,meteohub,2013-01-05 20:02:00,
2013-01-05 15:07:00,40.6,22.5,30.25,ESE,123,0.0,5.0,48,0.00,,,0.00,134.0,meteohub,2013-01-05 20:07:00,
2013-01-05 15:12:00,40.5,22.3,30.25,ESE,118,0.0,5.0,48,0.00,,,0.00,125.0,meteohub,2013-01-05 20:12:00,
2013-01-05 15:17:00,40.5,22.8,30.25,ESE,121,1.0,5.0,49,0.00,,,0.00,123.0,meteohub,2013-01-05 20:17:00,
2013-01-05 15:22:00,40.5,22.8,30.25,SE,138,1.0,4.0,49,0.00,,,0.00,116.0,meteohub,2013-01-05 20:22:00,
2013-01-05 15:27:00,40.3,22.1,30.25,SE,132,1.0,5.0,48,0.00,,,0.00,128.0,meteohub,2013-01-05 20:27:00,
2013-01-05 15:32:00,40.3,22.1,30.25,ESE,121,1.0,5.0,48,0.00,,,0.00,132.0,meteohub,2013-01-05 20:32:00,
2013-01-05 15:37:00,40.3,22.6,30.25,SE,134,1.0,5.0,49,0.00,,,0.00,102.0,meteohub,2013-01-05 20:37:00,
2013-01-05 15:42:00,40.3,22.1,30.24,SE,139,0.0,5.0,48,0.00,,,0.00,98.0,meteohub,2013-01-05 20:42:00,
2013-01-05 15:47:00,40.1,23.0,30.24,SE,131,0.0,4.0,50,0.00,,,0.00,114.0,meteohub,2013-01-05 20:47:00,
2013-01-05 15:52:00,39.9,22.8,30.24,SSE,160,0.0,4.0,50,0.00,,,0.00,86.0,meteohub,2013-01-05 20:52:00,
2013-01-05 15:57:00,39.9,23.2,30.25,SSE,155,0.0,4.0,51,0.00,,,0.00,90.0,meteohub,2013-01-05 20:57:00,
2013-01-05 16:02:00,39.7,23.5,30.24,SSE,154,0.0,4.0,52,0.00,,,0.00,91.0,meteohub,2013-01-05 21:02:00,
2013-01-05 16:07:00,39.7,23.2,30.24,SE,139,0.0,4.0,51,0.00,,,0.00,67.0,meteohub,2013-01-05 21:07:00,
2013-01-05 16:12:00,39.6,23.4,30.24,SSE,154,0.0,4.0,52,0.00,,,0.00,56.0,meteohub,2013-01-05 21:12:00,
2013-01-05 16:17:00,39.4,22.8,30.24,SSE,150,1.0,2.0,51,0.00,,,0.00,54.0,meteohub,2013-01-05 21:17:00,
2013-01-05 16:22:00,39.4,22.8,30.24,SSE,150,2.0,4.0,51,0.00,,,0.00,69.0,meteohub,2013-01-05 21:22:00,
2013-01-05 16:27:00,39.2,22.6,30.25,SSE,150,0.0,4.0,51,0.00,,,0.00,56.0,meteohub,2013-01-05 21:27:00,
2013-01-05 16:32:00,39.0,22.8,30.25,SSE,150,0.0,4.0,52,0.00,,,0.00,51.0,meteohub,2013-01-05 21:32:00,
2013-01-05 16:37:00,39.0,23.7,30.25,SSE,150,0.0,4.0,54,0.00,,,0.00,42.0,meteohub,2013-01-05 21:37:00,
2013-01-05 16:42:00,38.8,23.5,30.25,SE,146,1.0,2.0,54,0.00,,,0.00,42.0,meteohub,2013-01-05 21:42:00,
2013-01-05 16:47:00,38.8,23.2,30.26,SE,146,0.0,4.0,53,0.00,,,0.00,37.0,meteohub,2013-01-05 21:47:00,
2013-01-05 16:52:00,38.7,23.9,30.26,SSE,157,4.0,4.0,55,0.00,,,0.00,32.0,meteohub,2013-01-05 21:52:00,
2013-01-05 16:57:00,38.7,23.4,30.25,SE,136,2.0,4.0,54,0.00,,,0.00,23.0,meteohub,2013-01-05 21:57:00,
2013-01-05 17:02:00,38.5,23.4,30.25,ESE,122,0.0,4.0,54,0.00,,,0.00,19.0,meteohub,2013-01-05 22:02:00,
2013-01-05 17:07:00,38.3,23.2,30.25,SE,131,0.0,4.0,54,0.00,,,0.00,12.0,meteohub,2013-01-05 22:07:00,
2013-01-05 17:12:00,38.1,23.0,30.25,SE,131,0.0,2.0,54,0.00,,,0.00,11.0,meteohub,2013-01-05 22:12:00,
2013-01-05 17:17:00,37.9,22.8,30.25,SE,131,1.0,1.0,54,0.00,,,0.00,9.0,meteohub,2013-01-05 22:17:00,
2013-01-05 17:22:00,37.9,23.7,30.24,SE,131,0.0,1.0,56,0.00,,,0.00,5.0,meteohub,2013-01-05 22:22:00,
2013-01-05 17:27:00,37.8,23.0,30.25,SE,131,0.0,1.0,55,0.00,,,0.00,0.0,meteohub,2013-01-05 22:27:00,
2013-01-05 17:32:00,37.8,23.9,30.24,SE,131,0.0,1.0,57,0.00,,,0.00,0.0,meteohub,2013-01-05 22:32:00,
2013-01-05 17:37:00,37.6,23.4,30.24,SE,131,0.0,1.0,56,0.00,,,0.00,0.0,meteohub,2013-01-05 22:37:00,
2013-01-05 17:42:00,37.4,23.5,30.24,SE,131,0.0,0.0,57,0.00,,,0.00,0.0,meteohub,2013-01-05 22:42:00,
2013-01-05 17:47:00,37.2,23.4,30.24,SE,131,0.0,0.0,57,0.00,,,0.00,0.0,meteohub,2013-01-05 22:47:00,
2013-01-05 17:52:00,37.0,23.7,30.25,SE,131,0.0,1.0,58,0.00,,,0.00,0.0,meteohub,2013-01-05 22:52:00,
2013-01-05 17:57:00,37.0,23.2,30.25,SE,131,0.0,1.0,57,0.00,,,0.00,0.0,meteohub,2013-01-05 22:57:00,
2013-01-05 18:04:00,36.9,23.5,30.25,SE,131,0.0,1.0,58,0.00,,,0.00,0.0,meteohub,2013-01-05 23:04:00,
2013-01-05 18:10:00,36.9,23.5,30.25,SE,131,0.0,0.0,58,0.00,,,0.00,0.0,meteohub,2013-01-05 23:10:00,
2013-01-05 18:16:00,37.0,23.7,30.25,SE,138,1.0,2.0,58,0.00,,,0.00,0.0,meteohub,2013-01-05 23:16:00,
2013-01-05 18:22:00,37.0,23.7,30.25,SE,139,0.0,2.0,58,0.00,,,0.00,0.0,meteohub,2013-01-05 23:22:00,
2013-01-05 18:27:00,37.0,23.2,30.25,ESE,123,0.0,2.0,57,0.00,,,0.00,0.0,meteohub,2013-01-05 23:27:00,
2013-01-05 18:32:00,37.0,23.7,30.25,SSE,159,1.0,4.0,58,0.00,,,0.00,0.0,meteohub,2013-01-05 23:32:00,
2013-01-05 18:37:00,37.0,23.2,30.25,SW,217,0.0,4.0,57,0.00,,,0.00,0.0,meteohub,2013-01-05 23:37:00,
2013-01-05 18:42:00,37.0,23.2,30.25,South,173,0.0,4.0,57,0.00,,,0.00,0.0,meteohub,2013-01-05 23:42:00,
2013-01-05 18:47:00,37.0,23.2,30.26,South,180,0.0,4.0,57,0.00,,,0.00,0.0,meteohub,2013-01-05 23:47:00,
2013-01-05 18:52:00,37.0,23.2,30.25,South,180,0.0,4.0,57,0.00,,,0.00,0.0,meteohub,2013-01-05 23:52:00,
2013-01-05 18:57:00,37.0,23.2,30.25,SSW,199,0.0,3.0,57,0.00,,,0.00,0.0,meteohub,2013-01-05 23:57:00,
2013-01-05 19:02:00,37.0,23.7,30.26,South,179,4.0,4.0,58,0.00,,,0.00,0.0,meteohub,2013-01-06 00:02:00,
2013-01-05 19:07:00,37.0,23.2,30.26,WSW,255,0.0,5.0,57,0.00,,,0.00,0.0,meteohub,2013-01-06 00:07:00,
2013-01-05 19:12:00,36.9,23.5,30.26,SSE,157,4.0,5.0,58,0.00,,,0.00,0.0,meteohub,2013-01-06 00:12:00,
2013-01-05 19:17:00,36.9,23.5,30.25,SSW,199,1.0,5.0,58,0.00,,,0.00,0.0,meteohub,2013-01-06 00:17:00,
2013-01-05 19:22:00,36.9,23.5,30.25,SSW,199,0.0,5.0,58,0.00,,,0.00,0.0,meteohub,2013-01-06 00:22:00,
2013-01-05 19:27:00,36.9,23.9,30.25,SE,146,0.0,4.0,59,0.00,,,0.00,0.0,meteohub,2013-01-06 00:27:00,
2013-01-05 19:32:00,36.9,24.3,30.25,SSE,163,1.0,2.0,60,0.00,,,0.00,0.0,meteohub,2013-01-06 00:32:00,
2013-01-05 19:37:00,36.9,24.3,30.26,South,183,0.0,2.0,60,0.00,,,0.00,0.0,meteohub,2013-01-06 00:37:00,
2013-01-05 19:42:00,36.9,24.3,30.27,SE,136,1.0,4.0,60,0.00,,,0.00,0.0,meteohub,2013-01-06 00:42:00,
2013-01-05 19:47:00,36.9,24.6,30.26,NNE,21,0.0,7.0,61,0.00,,,0.00,0.0,meteohub,2013-01-06 00:47:00,
2013-01-05 19:52:00,36.9,24.6,30.26,East,81,0.0,7.0,61,0.00,,,0.00,0.0,meteohub,2013-01-06 00:52:00,
2013-01-05 19:57:00,36.9,24.6,30.26,East,94,0.0,7.0,61,0.00,,,0.00,0.0,meteohub,2013-01-06 00:57:00,
2013-01-05 20:02:00,36.9,25.0,30.26,East,87,1.0,2.0,62,0.00,,,0.00,0.0,meteohub,2013-01-06 01:02:00,
2013-01-05 20:07:00,36.9,24.6,30.25,SSE,157,4.0,4.0,61,0.00,,,0.00,0.0,meteohub,2013-01-06 01:07:00,
2013-01-05 20:12:00,36.9,24.6,30.26,SSW,207,0.0,5.0,61,0.00,,,0.00,0.0,meteohub,2013-01-06 01:12:00,
2013-01-05 20:17:00,36.9,24.6,30.26,SSE,167,2.0,5.0,61,0.00,,,0.00,0.0,meteohub,2013-01-06 01:17:00,
2013-01-05 20:22:00,36.9,25.0,30.25,SE,134,1.0,6.0,62,0.00,,,0.00,0.0,meteohub,2013-01-06 01:22:00,
2013-01-05 20:27:00,36.9,25.0,30.26,South,182,1.0,6.0,62,0.00,,,0.00,0.0,meteohub,2013-01-06 01:27:00,
2013-01-05 20:32:00,36.7,24.4,30.26,SSW,198,4.0,6.0,61,0.00,,,0.00,0.0,meteohub,2013-01-06 01:32:00,
2013-01-05 20:37:00,36.9,24.6,30.26,ESE,119,7.0,7.0,61,0.00,,,0.00,0.0,meteohub,2013-01-06 01:37:00,
2013-01-05 20:42:00,36.9,24.6,30.27,SSE,163,5.0,10.0,61,0.00,,,0.00,0.0,meteohub,2013-01-06 01:42:00,
2013-01-05 20:47:00,37.0,24.8,30.26,South,182,0.0,10.0,61,0.00,,,0.00,0.0,meteohub,2013-01-06 01:47:00,
2013-01-05 20:52:00,36.9,24.6,30.26,South,180,5.0,10.0,61,0.00,,,0.00,0.0,meteohub,2013-01-06 01:52:00,
2013-01-05 20:57:00,37.0,24.8,30.26,South,183,3.0,16.0,61,0.00,,,0.00,0.0,meteohub,2013-01-06 01:57:00,
2013-01-05 21:02:00,37.0,24.4,30.26,SW,222,3.0,16.0,60,0.00,,,0.00,0.0,meteohub,2013-01-06 02:02:00,
2013-01-05 21:07:00,37.0,24.4,30.26,SE,142,2.0,16.0,60,0.00,,,0.00,0.0,meteohub,2013-01-06 02:07:00,
2013-01-05 21:12:00,37.0,23.7,30.26,SSW,194,2.0,10.0,58,0.00,,,0.00,0.0,meteohub,2013-01-06 02:12:00,
2013-01-05 21:17:00,37.0,24.4,30.26,SSE,161,4.0,10.0,60,0.00,,,0.00,0.0,meteohub,2013-01-06 02:17:00,
2013-01-05 21:22:00,37.0,24.8,30.26,SSE,159,4.0,10.0,61,0.00,,,0.00,0.0,meteohub,2013-01-06 02:22:00,
2013-01-05 21:27:00,37.2,25.0,30.25,South,178,7.0,13.0,61,0.00,,,0.00,0.0,meteohub,2013-01-06 02:27:00,
2013-01-05 21:32:00,37.2,24.6,30.25,SSE,167,6.0,13.0,60,0.00,,,0.00,0.0,meteohub,2013-01-06 02:32:00,
2013-01-05 21:37:00,37.2,24.3,30.25,SSE,159,8.0,12.0,59,0.00,,,0.00,0.0,meteohub,2013-01-06 02:37:00,
2013-01-05 21:42:00,37.2,24.3,30.24,WSW,239,0.0,11.0,59,0.00,,,0.00,0.0,meteohub,2013-01-06 02:42:00,
2013-01-05 21:47:00,37.2,25.3,30.23,SSW,196,1.0,11.0,62,0.00,,,0.00,0.0,meteohub,2013-01-06 02:47:00,
2013-01-05 21:52:00,36.9,25.5,30.23,SSW,208,0.0,11.0,63,0.00,,,0.00,0.0,meteohub,2013-01-06 02:52:00,
2013-01-05 21:57:00,36.7,25.7,30.22,SSE,168,5.0,10.0,64,0.00,,,0.00,0.0,meteohub,2013-01-06 02:57:00,
2013-01-05 22:02:00,36.7,25.3,30.23,South,183,3.0,10.0,63,0.00,,,0.00,0.0,meteohub,2013-01-06 03:02:00,
2013-01-05 22:07:00,36.7,25.0,30.23,SSE,158,5.0,10.0,62,0.00,,,0.00,0.0,meteohub,2013-01-06 03:07:00,
2013-01-05 22:12:00,36.7,25.3,30.23,SSE,165,2.0,10.0,63,0.00,,,0.00,0.0,meteohub,2013-01-06 03:12:00,
2013-01-05 22:17:00,36.7,25.0,30.22,South,172,0.0,10.0,62,0.00,,,0.00,0.0,meteohub,2013-01-06 03:17:00,
2013-01-05 22:22:00,36.7,25.3,30.21,SSE,165,0.0,7.0,63,0.00,,,0.00,0.0,meteohub,2013-01-06 03:22:00,
2013-01-05 22:27:00,36.7,26.1,30.21,South,184,0.0,7.0,65,0.00,,,0.00,0.0,meteohub,2013-01-06 03:27:00,
2013-01-05 22:32:00,36.7,26.1,30.21,SSE,148,1.0,8.0,65,0.00,,,0.00,0.0,meteohub,2013-01-06 03:32:00,
2013-01-05 22:37:00,36.7,26.1,30.21,SSE,163,7.0,8.0,65,0.00,,,0.00,0.0,meteohub,2013-01-06 03:37:00,
2013-01-05 22:42:00,36.9,25.9,30.21,South,182,2.0,12.0,64,0.00,,,0.00,0.0,meteohub,2013-01-06 03:42:00,
2013-01-05 22:47:00,36.9,26.6,30.20,SE,146,7.0,12.0,66,0.00,,,0.00,0.0,meteohub,2013-01-06 03:47:00,
2013-01-05 22:52:00,36.9,27.0,30.20,SSE,150,6.0,12.0,67,0.00,,,0.00,0.0,meteohub,2013-01-06 03:52:00,
2013-01-05 22:57:00,36.9,27.0,30.20,ESE,119,2.0,8.0,67,0.00,,,0.00,0.0,meteohub,2013-01-06 03:57:00,
2013-01-05 23:02:00,36.9,27.0,30.19,SW,219,1.0,8.0,67,0.00,,,0.00,0.0,meteohub,2013-01-06 04:02:00,
2013-01-05 23:07:00,36.9,26.2,30.19,SSE,159,1.0,8.0,65,0.00,,,0.00,0.0,meteohub,2013-01-06 04:07:00,
2013-01-05 23:15:00,36.9,26.6,30.19,SSE,160,0.0,8.0,66,0.00,,,0.00,0.0,meteohub,2013-01-06 04:15:00,
2013-01-05 23:21:00,36.9,27.0,30.19,NE,49,3.0,8.0,67,0.00,,,0.00,0.0,meteohub,2013-01-06 04:21:00,
2013-01-05 23:27:00,36.9,27.3,30.19,North,5,2.0,8.0,68,0.00,,,0.00,0.0,meteohub,2013-01-06 04:27:00,
2013-01-05 23:32:00,36.7,27.1,30.19,SSE,167,2.0,8.0,68,0.00,,,0.00,0.0,meteohub,2013-01-06 04:32:00,
2013-01-05 23:37:00,36.7,27.9,30.19,North,350,0.0,7.0,70,0.00,,,0.00,0.0,meteohub,2013-01-06 04:37:00,
2013-01-05 23:42:00,36.7,28.6,30.18,NE,52,2.0,6.0,72,0.00,,,0.00,0.0,meteohub,2013-01-06 04:42:00,
2013-01-05 23:47:00,36.5,28.0,30.18,NNE,12,0.0,6.0,71,0.00,,,0.00,0.0,meteohub,2013-01-06 04:47:00,
2013-01-05 23:54:00,36.5,27.7,30.18,WNW,288,1.0,6.0,70,0.00,,,0.00,0.0,meteohub,2013-01-06 04:54:00,